Location: Die�furt
(49.7326°N, 11.9720°E)
Time: 00:56:22
(UTC+00:00)

Daily predictions for brighter satellites

Satellite Brightness Start Highest point End
(mag) Time Altitude Azimuth Time Altitude Azimuth Time Altitude Azimuth
ATLAS 2AS CENTAUR R/B 4.0 02:27:31 36° N 02:28:36 37° NNE 02:35:26 10° E
COSMOS 2455 4.1 02:52:47 33° NNE 02:53:49 35° NE 02:59:17 10° ESE
Cosmos 2082 Rocket 3.0 02:56:59 46° ESE 02:57:05 46° ESE 03:02:32 10° NE
CZ-4C R/B 3.6 03:00:04 32° N 03:00:04 32° N 03:04:14 10° NE
IDEFIX/ARIANE 42P 4.2 02:53:59 10° NNE 02:56:21 27° NNE 02:56:21 27° NNE
MSX 4.5 02:54:53 10° NNE 03:00:31 52° E 03:01:46 44° SE
USA 234 3.7 02:56:59 10° ENE 03:03:05 49° N 03:03:05 49° N
Cosmos 1833 Rocket 3.0 03:15:03 60° NE 03:15:03 60° NE 03:19:38 10° NNE
Cosmos 1605 Rocket 4.3 03:08:18 10° S 03:14:23 61° E 03:20:25 10° NNE
SJ 16-02 3.3 03:20:41 12° SSE 03:24:05 28° E 03:27:49 10° NE
Cosmos 2112 Rocket 4.2 03:26:20 65° SE 03:26:20 65° SE 03:30:55 10° SSE
Cosmos 2360 Rocket 4.2 03:22:48 13° N 03:26:31 23° NE 03:31:01 10° E
SL-16 R/B 3.3 03:23:51 24° N 03:26:42 40° NE 03:32:02 10° ESE
H-2A R/B 3.4 03:24:10 10° NNE 03:27:41 49° NE 03:27:41 49° NE
ATLAS 5 CENTAUR R/B 4.3 03:26:39 48° WNW 03:29:37 65° SW 04:03:39 10° SSE
Cosmos 1680 Rocket 4.0 03:34:13 47° S 03:34:13 47° S 03:37:59 10° SSE
Cosmos 1980 Rocket 2.3 03:34:05 60° S 03:34:05 60° S 03:38:49 10° SSE
Cosmos 2322 Rocket 3.3 03:33:11 21° N 03:36:34 41° NE 03:41:55 10° ESE
Cosmos 158 Rocket 4.0 03:36:04 61° NNE 03:36:41 68° ENE 03:41:34 10° SSE
Cosmos 1535 Rocket 4.4 03:37:57 61° NW 03:37:57 61° NW 03:43:28 10° N
Lacrosse 5 rocket 3.2 03:40:34 20° NNE 03:40:34 20° NNE 03:42:20 10° ENE
NOSS 3-4 (A) 4.4 03:36:44 29° NNW 03:40:10 51° NE 03:47:25 10° ESE
NOSS 3-4 (C) 4.4 03:36:50 28° NNW 03:40:16 51° NE 03:47:30 10° ESE
SL-27 R/B 4.1 03:48:19 30° ENE 03:48:19 30° ENE 03:50:23 10° NE
ADEOS 4.1 03:42:18 10° N 03:46:05 44° NNW 03:46:05 44° NNW
Cosmos 2084 Rocket 4.1 03:49:19 47° N 03:49:19 47° N 03:52:44 10° NE
BREEZE-M DEB (TANK) 4.4 03:55:24 22° SSE 03:55:24 22° SSE 03:57:19 10° SE
Lacrosse 5 1.7 03:54:20 70° WSW 03:54:56 88° NW 04:00:03 10° ENE
CZ-2C R/B 2.2 03:54:50 10° NNE 03:59:48 83° WNW 04:02:52 22° SSW
Cosmos 839 Rocket 4.0 03:57:11 28° SW 04:01:06 85° NW 04:07:21 10° NE
Cosmos 2058 2.9 03:58:44 14° S 04:02:17 83° E 04:06:31 10° NNE
CZ-4B R/B 2.6 04:01:49 10° NNE 04:05:10 74° NE 04:05:10 74° NE
Cosmos 2333 Rocket 4.4 04:02:07 10° N 04:06:22 20° NE 04:10:35 10° E
SL-4 R/B 2.3 04:05:33 61° WNW 04:06:23 82° NNE 04:11:15 10° ESE
ASTEX 1 3.3 04:01:31 10° S 04:06:27 67° W 04:11:27 10° N
Meteor 1-31 Rocket 2.6 04:05:01 10° NNE 04:08:52 81° WNW 04:09:01 79° WSW
SKYMED 2 3.7 04:07:58 10° SSE 04:12:17 76° ENE 04:16:39 10° N
Cosmos 1934 Rocket 4.4 04:12:16 39° WNW 04:12:36 39° WNW 04:18:34 10° N
Cosmos 1328 Rocket 4.4 04:09:37 10° N 04:13:52 49° ENE 04:18:03 10° SSE
Gbstr 26 Del rocket 3.2 04:13:09 41° SSW 04:14:01 51° SSE 04:17:39 10° ENE
Cosmos 1356 Rocket 4.2 04:15:44 36° SW 04:15:44 36° SW 04:18:34 10° S
Cosmos 1484 Rocket 3.4 04:11:22 10° NNE 04:15:21 60° E 04:19:19 10° S
Cosmos 1151 Rocket 4.0 04:11:07 10° N 04:15:22 47° ENE 04:19:35 10° SSE
Cosmos 1892 3.0 04:14:02 10° S 04:17:47 65° E 04:21:33 10° NNE
Cosmos 1076 Rocket 3.6 04:18:24 53° W 04:18:28 53° WNW 04:22:44 10° N
Cosmos 2219 Rocket 4.2 04:14:22 10° N 04:18:41 22° NE 04:23:00 10° E
Meteor 2-2 Rocket 4.5 04:17:32 35° WNW 04:18:58 42° W 04:24:13 10° SSW
deb Kosmos-1763 3.9 04:19:59 67° WSW 04:20:17 72° WNW 04:24:01 10° NNE
ATLAS 2AS CENTAUR R/B 2.9 04:14:58 21° NW 04:20:37 87° NE 04:27:48 10° SE
Cosmos 1898 Rocket 3.4 04:15:45 10° SSW 04:21:00 82° WNW 04:26:20 10° NNE
STARLINK-80 4.2 04:19:34 30° SSW 04:21:03 47° SSE 04:24:45 10° ENE
Cosmos 2100 Rocket 4.0 04:16:42 10° S 04:22:53 81° E 04:29:04 10° N
ALOS 3.2 04:22:19 10° NNE 04:26:53 49° E 04:31:24 10° S
Meteor 2-20 Rocket 4.4 04:22:26 10° NNW 04:28:35 67° W 04:34:41 10° S
Cosmos 967 Rocket 4.5 04:25:00 23° WSW 04:29:02 64° NW 04:35:28 10° NE
Cosmos 1937 Rocket 3.4 04:26:43 10° SSW 04:31:53 89° WNW 04:37:03 10° NNE
STARLINK-46 3.3 04:34:10 43° N 04:34:22 44° N 04:37:15 10° E
MOS 1-B 4.4 04:30:12 10° NNE 04:36:03 81° ESE 04:41:51 10° SSW
Cosmos 1802 Rocket 4.2 04:31:12 10° S 04:37:37 81° E 04:44:03 10° NNE
IDEFIX/ARIANE 42P 4.0 04:34:27 10° N 04:37:09 20° NW 04:37:09 20° NW
Cosmos 1408 Rocket 4.1 04:34:50 10° S 04:39:04 61° E 04:43:22 10° NNE
In-Cosmos 22 Rocket 4.0 04:34:09 10° SSW 04:39:30 73° WNW 04:45:02 10° N
CZ-4B DEB 4.4 04:34:10 10° NNE 04:39:40 76° ESE 04:45:09 10° S
COSMOS 2455 2.8 04:35:58 20° NW 04:40:08 63° WSW 04:46:03 10° SSE
Cosmos 1825 3.4 04:36:38 10° SSE 04:40:12 43° E 04:43:49 10° NNE
Cosmos 2082 Rocket 2.7 04:38:53 26° W 04:41:18 38° NW 04:46:38 10° NNE
STARLINK-48 4.1 04:40:19 18° SW 04:43:03 54° SSE 04:46:52 10° ENE
USA 234 3.7 04:39:21 10° E 04:45:40 53° NNE 04:50:25 18° WNW
COBE Rocket 4.4 04:42:19 10° SSW 04:47:06 38° W 04:51:50 10° NNW
Cosmos 858 Rocket 4.4 04:42:11 10° SSW 04:47:20 67° WNW 04:52:33 10° NNE
CZ-4C R/B 3.9 04:45:15 17° NW 04:48:25 25° N 04:54:00 10° NE
STARLINK-67 2.3 04:48:12 54° WNW 04:48:42 86° NNE 04:51:20 10° ESE
Cosmos 2061 Rocket 4.0 04:43:24 10° S 04:49:40 86° E 04:55:55 10° N
Okean 3 Rocket 3.7 04:46:20 10° SSW 04:50:47 55° WNW 04:55:14 10° N
PSLV R/B 3.9 04:48:09 10° N 04:51:54 51° WNW 04:55:42 10° SSW
STARLINK-52 3.5 04:50:57 32° WNW 04:52:17 53° N 04:55:45 10° ENE
Cosmos 1766 Rocket 3.4 04:48:08 10° SSW 04:52:27 67° WNW 04:56:48 10° N
ATLAS CENTAUR R/B 3.0 04:48:10 10° SSW 04:52:49 43° ESE 04:57:21 10° NE
STARLINK-43 3.2 04:51:35 25° WSW 04:53:38 84° NNW 04:57:23 10° ENE
Cosmos 1833 Rocket 3.8 04:56:48 20° WNW 04:58:37 24° NW 05:03:06 10° NNE
Cosmos 2173 Rocket 4.0 04:52:27 10° SSW 04:58:40 63° WNW 05:04:49 10° N
COSMOS 2428 4.1 04:53:28 10° NNW 04:58:41 35° NE 05:03:54 10° ESE
Cosmos 2151 3.1 04:56:00 10° SSW 05:00:12 51° WNW 05:04:26 10° N
COSMO-SKYMED 1 3.1 04:56:23 10° SSW 05:00:25 37° W 05:04:29 10° NNW
STARLINK-60 3.6 05:00:12 26° WNW 05:01:46 46° N 05:05:02 10° ENE
SJ 16-02 1.8 04:58:28 10° SW 05:02:33 37° WNW 05:06:39 10° N
Cosmos 1933 3.4 04:58:54 10° N 05:02:57 83° E 05:06:58 10° SSE
H-2A R/B 4.0 05:00:30 10° NNW 05:03:44 20° WNW 05:04:14 19° WNW
ADEOS Rocket 4.3 04:56:54 10° SE 05:04:21 53° ENE 05:11:26 10° N
STARLINK-29 3.6 05:04:21 23° WNW 05:06:13 49° N 05:09:38 10° ENE
Shenzhou-11 Module 4.2 05:06:37 11° SW 05:07:54 14° SSW 05:09:24 10° SSE
SL-16 R/B 2.6 05:05:46 11° NW 05:10:51 42° WSW 05:16:08 10° S
Cosmos 2360 Rocket 2.2 05:05:34 10° NNW 05:11:17 86° WSW 05:16:58 10° SSE
Cosmos 2237 Rocket 4.2 05:07:44 10° NNW 05:12:09 22° NE 05:16:33 10° E
Cosmos 2233 Rocket 4.5 05:07:02 10° S 05:13:14 67° E 05:19:30 10° NNE
Radarsat Rocket 4.5 05:08:00 10° NNE 05:13:51 64° ESE 05:19:40 10° S
BREEZE-M DEB (TANK) 4.2 05:04:38 15° WNW 05:14:05 41° SW 05:17:55 10° SSE
Cosmos 1864 Rocket 4.4 05:09:30 10° SSW 05:15:38 81° W 05:21:52 10° N
Cosmos 1980 Rocket 3.9 05:15:56 13° W 05:16:08 13° W 05:18:32 10° WSW
Meteor 2-3 Rocket 4.3 05:13:14 10° S 05:18:53 65° E 05:24:38 10° NNE
Cosmos 372 Rocket 3.9 05:13:48 10° SSW 05:18:58 87° WNW 05:24:08 10° NNE
Lacrosse 5 rocket 1.9 05:16:13 14° NW 05:19:04 40° NNE 05:22:28 10° E
Cosmos 2298 Rocket 4.0 05:14:22 10° SSW 05:19:40 78° WNW 05:25:00 10° NNE
FALCON 9 DEB 3.6 05:18:07 17° WNW 05:20:32 46° N 05:23:52 10° ENE
Cosmos 2322 Rocket 2.7 05:15:22 10° NW 05:20:38 41° WSW 05:25:54 10° S
Helios 1A Rocket 3.0 05:18:12 10° N 05:22:16 57° WNW 05:26:16 10° SSW
Cosmos 2228 Rocket 3.1 05:17:53 10° NNW 05:22:30 83° W 05:27:05 10° S
SL-27 R/B 4.0 05:21:58 15° WNW 05:22:33 16° NW 05:24:43 10° NNW
Okean O Rocket 1.6 05:19:14 10° N 05:23:31 59° WNW 05:27:47 10° SSW
COSMOS 2487 2.3 05:21:20 10° SSW 05:24:47 77° WNW 05:28:16 10° NNE
Cosmos 1437 2.5 05:23:19 10° SSW 05:26:22 76° WNW 05:29:26 10° N
Cosmos 1048 Rocket 4.1 05:24:00 10° NNW 05:29:20 62° WSW 05:34:36 10° S
NOSS 3-4 (A) 4.1 05:24:30 10° NW 05:31:18 55° WSW 05:38:43 10° SSE
NOSS 3-4 (C) 4.1 05:24:36 10° NW 05:31:24 55° WSW 05:38:49 10° SSE
CZ-2C R/B 4.1 05:27:45 10° SSE 05:32:13 68° ENE 05:36:50 10° N
Abrixas rocket 4.3 05:32:49 10° SSW 05:35:20 24° SSE 05:37:51 10° E
SJ-7 4.4 05:31:55 10° N 05:36:06 64° WNW 05:40:11 10° SSW
STARLINK-71 4.4 05:33:02 10° SW 05:37:05 53° SSE 05:41:08 10° ENE
CZ-2C R/B 4.0 05:34:37 10° NNW 05:37:14 15° NW 05:39:49 10° W
Lacrosse 5 2.5 05:33:35 10° W 05:38:23 40° NNW 05:43:11 10° ENE
Cosmos 1408 3.4 05:35:35 10° SW 05:38:49 28° WNW 05:42:03 10° N
Cosmos 2333 4.4 05:33:05 10° NNW 05:38:55 83° ENE 05:44:43 10° SSE
STARLINK-78 4.5 05:36:10 10° SW 05:40:11 53° SSE 05:44:14 10° ENE
NOSS 3-3 (A) 4.4 05:36:25 10° WSW 05:42:20 46° NNW 05:49:01 10° NE
NOSS 3-3 (C) 4.4 05:36:31 10° WSW 05:42:26 46° NNW 05:49:07 10° NE
Cosmos 1782 2.9 05:38:47 10° N 05:42:49 81° E 05:46:48 10° SSE
STARLINK-49 4.4 05:39:28 10° SW 05:43:30 55° SSE 05:47:34 10° ENE
STARLINK-27 4.4 05:41:03 10° SW 05:45:06 56° SSE 05:49:11 10° ENE
Cosmos 2322 3.7 05:40:14 10° NNW 05:45:57 79° WSW 05:51:36 10° SSE
SL-4 R/B 3.1 05:41:25 10° WNW 05:46:01 43° SSW 05:50:32 10° SE
STARLINK-74 4.3 05:42:45 10° SW 05:46:50 57° SSE 05:50:54 10° ENE
Cosmos 1725 Rocket 4.2 05:41:03 10° SSW 05:47:07 51° WNW 05:53:16 10° N
STARLINK-39 4.3 05:44:25 10° SW 05:48:30 59° SSE 05:52:35 10° ENE
Cosmos 1484 Rocket 4.4 05:46:49 10° NNW 05:49:21 16° WNW 05:51:52 10° W
Cosmos 1238 Rocket 4.0 05:43:24 10° SSW 05:50:00 71° W 05:56:00 10° N
STARLINK 4.2 05:46:01 10° SW 05:50:06 60° SSE 05:54:12 10° ENE
Cosmos 2016 Rocket 4.4 05:44:33 10° SW 05:50:23 40° WNW 05:56:20 10° N
CZ-4B R/B 3.4 05:45:18 10° N 05:50:25 46° WNW 05:55:35 10° SW
STARLINK-42 4.2 05:46:49 10° SW 05:50:54 63° SSE 05:55:00 10° ENE
Cosmos 2333 Rocket 2.5 05:45:50 10° NNW 05:51:39 76° ENE 05:57:25 10° SE
USA 267 4.4 05:46:13 10° ENE 05:52:31 49° SE 05:58:49 10° SSW
